Terminal Aerodrome Forecast
Issued by NWS Twin Cities, MN

Home | Current Version | Previous Version | Text Only | Print | Product List | Glossary Off
Versions: 1 2 3 4 5 6 7 8 9 10 11 12 13 14 15 16 17 18 19 20 21 22 23 24 25 26 27

000
FTUS43 KMPX 232300
TAFMSP
TAF
KMSP 232334Z 2400/2506 17004KT P6SM SKC
     FM240900 15004KT 5SM BR SCT020
     FM241400 17007KT P6SM SCT035
     FM250300 26005KT P6SM SCT250=

USA.gov is the U.S. government's official web portal to all federal, state and local government web resources and services.